Погода в Джханси

Индия     25°26′22″N   78°34′15″E
темп.,
°C
ветер,
м/с
пор.,
м/с
влажн.,
%
обл.,
%
осадки,
мм/ч
давл.,
гПа
погр.,
м
18 мая, вт
вт1823:30+28ссв4551100 1.9 1007542
02:30+27св355698 1.5 1006534
05:30+26всв356372 2.4 1006525
08:30+27в346284 3.1 1008842
11:30+30в545185 4.6 10071147
14:30+32вюв434534 0.6 10041332
17:30+32в554674 2.1 10021110
20:30+28юв3661100 2.0 1005728
19 мая, ср
ср1923:30+27вюв4668100 6.6 1005618
02:30+26вюв5774100 3.1 1003491
05:30+26вюв238292 8.3 1003324
08:30+28вюв676959 1.9 1004906
11:30+34ю5947100 5.2 10022142
14:30+34ююв2546100 0.2 999832
17:30+31св4460100 0.2 998107
20:30+31вюв335899 0.0 99978
20 мая, чт
чт2023:30+30з366282 0.1 1000489
02:30+29юз486099 0.1 1000908
05:30+26юз6106397 0.1 10001029
08:30+28юз7956100 0.0 10031551
11:30+28юз7857100 0.0 10031466
14:30+27юз356179 0.1 1002766
17:30+28зсз996445 0.2 10021108
20:30+27зсз711660 0.0 1004977
21 мая, пт
пт2123:30+25сз614640 0.0 1005654
02:30+24сз411690 0.0 1004498
05:30+23зсз38670 0.0 1005318
08:30+28зсз57440 0.0 1006457
11:30+34сз58310 0.0 10051742
14:30+37сз68250 0.0 10032962
17:30+37сз67240 0.0 10023116
20:30+34сз23310 0.0 100344
22 мая, сб
сб2223:30+33з11340 0.0 100311
02:30+32ююз11360 0.0 100212
05:30+30з47390 0.0 1003143
08:30+34сз610300 0.0 1005632
11:30+39зсз56180 0.0 10042895
14:30+41зсз55113 0.0 10024301
17:30+40зсз56113 0.0 10004468
20:30+37з35170 0.0 100180